Regional Weather Roundup
Issued by NWS

Home | Current Version | Previous Version | Graphics & Text | Print | Product List | Glossary On
Versions: 1 2 3 4 5 6 7 8 9 10 11 12 13 14 15 16 17 18 19 20 21 22 23 24 25 26 27 28 29 30 31 32 33 34 35 36 37 38 39 40 41 42 43 44 45 46 47 48 49 50
000
ASUS43 KLSX 042107
RWRMO

WEATHER SUMMARY FOR MISSOURI
NATIONAL WEATHER SERVICE SPRINGFIELD MO
400 PM CDT WED MAY 04 2016

NOTE: "FAIR" INDICATES FEW OR NO CLOUDS BELOW 12,000 FEET WITH NO
       SIGNIFICANT WEATHER AND/OR OBSTRUCTIONS TO VISIBILITY.
       CURRENT SKY AND/OR WEATHER CONDITIONS ARE NOT AVAILABLE FOR
       CHILLICOTHE AND FARMINGTON.

MOZ001>031-035>038-043-044-053-054-042200-
...NORTHERN AND WESTERN MISSOURI...

CITY           SKY/WX    TMP DP  RH WIND       PRES   REMARKS
KANSAS CTY INT MOSUNNY   69  38  32 N13G25    29.98F
KANSAS C DTWN  SUNNY     71  39  31 N9G20     29.96F
LEE`S SUMMIT   SUNNY     69  39  33 N15G26    29.97F
ST JOSEPH      SUNNY     70  36  28 N17G24    29.99F
CHILLICOTHE      N/A     68  39  34 N12G20    29.96S
KIRKSVILLE     SUNNY     66  36  32 N16       29.94S

$$
MOZ066>068-077>081-088>096-101>105-042200-
...SOUTHWEST MISSOURI...

CITY           SKY/WX    TMP DP  RH WIND       PRES   REMARKS
SPRINGFIELD    SUNNY     71  40  32 N18G26    29.92S
JOPLIN         SUNNY     71  40  32 N16       29.96F
BRANSON        SUNNY     72  36  26 NW12G29   29.92R

$$
MOZ032>034-039>042-045>050-055>058-069>072-042200-
...CENTRAL MISSOURI...

CITY           SKY/WX    TMP DP  RH WIND       PRES   REMARKS
COLUMBIA       SUNNY     68  35  29 N17G30    29.90S
JEFFERSON CITY MOSUNNY   69  36  29 NW15      29.88F
ROLLA          SUNNY     66  38  35 N21G29    29.87S
SEDALIA        MOSUNNY   70  38  31 N23       29.94F
WHITEMAN AFB   MOSUNNY   69  39  32 N22       29.93F
WARRENSBURG    SUNNY     68  36  30 NW14G23   29.95S
OSAGE BEACH    MOSUNNY   70  36  28 NW9G21    29.90F

$$
MOZ051-052-059>065-042200-
...EAST CENTRAL MISSOURI...

CITY           SKY/WX    TMP DP  RH WIND       PRES   REMARKS
ST LOUIS INTL  MOSUNNY   69  40  34 NW20G29   29.84S
SPIRIT OF STL  MOSUNNY   68  39  34 N22G30    29.84R
ST CHARLES     MOSUNNY   65  42  43 NW16G29   29.84R

$$
MOZ072>076-082>087-097>100-106>115-042200-
...SOUTH CENTRAL AND SOUTHEAST MISSOURI...

CITY           SKY/WX    TMP DP  RH WIND       PRES   REMARKS
CAPE GIRARDEAU MOSUNNY   69  41  36 N20       29.78S
FARMINGTON     MOSUNNY   68  38  33 NW17G28   29.82S
POPLAR BLUFF   MOSUNNY   71  42  35 N10G23    29.78S
WEST PLAINS    MOSUNNY   72  40  31 NW15G26   29.86S

$$



USA.gov is the U.S. government's official web portal to all federal, state and local government web resources and services.